Retour au catalogue

STARLINK-31406

ActifCommunicationsVLEO
NORAD 59017·PAYLOAD·🇺🇸 United States

Lancé Feb 23, 2024 depuis Vandenberg Space Force Base

Loading…

Prochains Passages (prochaines 24 heures)

TLE

FraisSource: CelesTrak SupGP

Époque: Sep 14, 2026, 22:08 UTC

1 59017C 24036V   26257.92270833  .00050253  00000+0  14849-2 0  2572
2 59017  53.1582 261.7477 0001313  91.6793 174.0256 15.34362606    17

Suivez STARLINK-31406 en temps réel avec AllMySat

Download on the App Store